Weather in Turgutlu

Turkey     38°29′55″N   27°41′58″E
temp.,
°C
wind,
m/s
gust,
m/s
humid.,
%
clouds,
%
prec.,
mm/h
press.,
hPa
HPBL,
m
17 june, thu
thu1700:00+16s11770 0.0 101511
03:00+16sse11795 0.0 101611
06:00+15ese11810 0.0 101611
09:00+20nne22630 0.0 1017403
12:00+24nne23481 0.0 10171408
15:00+27n33392 0.0 10161948
18:00+28n33365 0.0 10152169
21:00+21w12620 0.0 101521
18 june, fri
fri1800:00+20sw11650 0.0 101615
03:00+19ssw01700 0.0 101611
06:00+18sse11720 0.0 101511
09:00+23nne11550 0.0 1015454
12:00+27n32380 0.0 10141343
15:00+30nnw32300 0.0 10122196
18:00+30nnw54322 0.0 10101885
21:00+21s22648 0.9 101220
19 june, sat
sat1900:00+21wsw116385 0.1 101216
03:00+19wnw0171100 0.1 101214
06:00+19s017588 0.0 101111
09:00+23n22618 0.0 1012528
12:00+27n33425 0.0 10111542
15:00+30nnw333343 0.0 10092297
18:00+28nnw45415 0.0 10091303
21:00+23n23612 0.0 101090
20 june, sun
sun2000:00+20w11700 0.0 101116
03:00+19sw01770 0.0 101111
06:00+17wnw11845 0.0 101114
09:00+22n226541 0.0 1011524
12:00+26nnw3247100 0.0 10101182
15:00+29nnw553998 0.0 10081732
18:00+29nnw6639100 0.0 10081925
21:00+24n2357100 0.1 1010129
21 june, mon
mon2100:00+20wsw126927 0.0 101115
03:00+19sw11741 0.0 101112
06:00+18s11795 0.0 101111
09:00+23n11630 0.0 1012570
12:00+27n32460 0.0 10121558
15:00+30nw333515 0.2 10102283
18:00+29nw653951 0.0 10101295
21:00+24wnw22577 0.1 101117